Regional Weather Roundup
Issued by NWS Portland, ME

Current Version | Previous Version | Text Only | Print | Product List | Glossary On
Versions: 1 2 3 4 5 6 7 8 9 10 11 12 13 14 15 16 17 18 19 20 21 22 23 24 25 26 27 28 29 30 31 32 33 34 35 36 37 38 39 40 41 42 43 44 45 46 47 48 49 50
000 ASUS41 KGYX 031410 RWRGYX WEATHER ROUNDUP FOR MAINE AND NEW HAMPSHIRE NATIONAL WEATHER SERVICE GRAY ME 1000 AM EDT TUE MAY 03 2016 MEZ002-005-006-010-012-015-018-020-021-024-026-027-029-031500- MAINE CITY SKY/WX TMP DP RH WIND PRES REMARKS PORTLAND CLOUDY 49 42 77 VRB3 29.92F SANFORD CLOUDY 46 39 76 CALM 29.94R BAR HARBOR CLOUDY 45 41 86 N5 29.91S WISCASSET PTSUNNY 50 42 74 CALM 29.93S ROCKLAND CLOUDY 46 42 86 VRB3 29.91F FRYEBURG CLOUDY 46 42 86 CALM 29.92S LEWISTONAUBURN CLOUDY 46 39 76 N5 29.92S AUGUSTA CLOUDY 47 41 80 NE5 29.91F WATERVILLE CLOUDY 46 40 79 N7 29.89F BANGOR CLOUDY 48 40 73 N6 29.91S GREENVILLE N/A 39 37 92 NW5 29.86F MILLINOCKET CLOUDY 44 38 79 N8 29.92S HOULTON CLOUDY 43 39 86 N5 29.89R PRESQUE ISLE CLOUDY 42 38 85 N6 29.91S FRENCHVILLE CLOUDY 41 36 82 VRB5 29.90S CARIBOU CLOUDY 43 38 82 NE8 29.90S $$ NHZ002-005-008-009-011-012-014-031500- NEW HAMPSHIRE CITY SKY/WX TMP DP RH WIND PRES REMARKS ROCHESTER CLOUDY 46 41 82 CALM 29.92S NASHUA CLOUDY 48 44 86 N3 29.93S MANCHESTER CLOUDY 49 43 80 CALM 29.91S CONCORD CLOUDY 49 42 77 VRB3 29.92F LACONIA CLOUDY 48 37 66 CALM 29.91S PLYMOUTH CLOUDY 48 40 73 W6 29.91F BERLIN CLOUDY 45 39 79 W3 29.90F WHITEFIELD CLOUDY 44 38 79 N5 29.91S JAFFREY CLOUDY 46 41 82 N3 29.91S KEENE CLOUDY 48 43 81 NW5 29.93S LEBANON CLOUDY 48 39 71 NW5 29.91F MT WASHINGTON CLOUDY 32 23 69 NW20 N/A $$ VTZ005-007-008-031500- VERMONT CITY SKY/WX TMP DP RH WIND PRES REMARKS ST JOHNSBURY N/A 45 38 76 MISG 29.91S MONTPELIER CLOUDY 41 37 86 NW6 29.96S BURLINGTON CLOUDY 44 37 76 N6 29.95S $$ MAZ007-012-024-CTZ003-RIZ002-NYZ038-NYZ072-031500- SOUTHERN NEW ENGLAND AND NY CITY SKY/WX TMP DP RH WIND PRES REMARKS BOSTON LGT RAIN 47 44 90 NE3 29.93F WORCESTER LGT RAIN 45 44 97 E5 29.90S NANTUCKET RAIN 47 45 93 E7 29.90S FOG PROVIDENCE LGT RAIN 49 46 90 NE5 29.92S FOG HARTFORD LGT RAIN 50 48 93 N7 29.90S FOG ALBANY CLOUDY 49 42 77 N9 29.92F NEW YORK CITY LGT RAIN 54 50 86 NE18 29.85F $$ ANZ081-ANZ082-ANZ150-NHZ014-MEZ023>029-031500- COASTAL MARINE OBSERVATIONS STATION/POSITION TIME TEMP WIND PRES WAVE AIR SEA DIR/SP/G HT/PER (UTC) (F) (DEG/KT/KT) (MB) (FT/S) MOUNT DESERT ROC 1400 43 300/ 11/ 12 1012.8S MATINICUS ROCK 1400 42 300/ 7/ 7 1012.6F ISLE OF SHOALS 1300 44 80/ 3/ 4 1012.9F CASHES LEDGE BUO 1350 43 44 320/ 6/ 8 1012.7F 4/ 6 GEORGES BANK BUO 1350 46 46 1013.6R 5/ 8 $$ .............KEY.............. WCI - WIND CHILL TC - TEMPERATURE IN CELSIUS VSB - VISIBILITY IN MILES HX - HEAT INDEX FAIR- INDICATES FEW OR NO CLOUDS BELOW 12,000 FT, WITH NO SIGNIFICANT WEATHER AND/OR OBSTRUCTIONS TO VISIBILITY.

USA.gov is the U.S. government's official web portal to all federal, state and local government web resources and services.